Regional Weather Roundup
Issued by NWS

Home | Current Version | Previous Version | Graphics & Text | Print | Product List | Glossary On
Versions: 1 2 3 4 5 6 7 8 9 10 11 12 13 14 15 16 17 18 19 20 21 22 23 24 25 26 27 28 29 30 31 32 33 34 35 36 37 38 39 40 41 42 43 44 45 46 47 48 49 50
000
ASUS45 KCYS 290210
RWRWY

WYOMING REGIONAL WEATHER ROUNDUP
NATIONAL WEATHER SERVICE CHEYENNE WY
800 PM MDT MON JUL 28 2014

NOTE:  "FAIR" INDICATES FEW OR NO CLOUDS BELOW 12,000 FEET
WITH NO SIGNIFICANT WEATHER AND/OR OBSTRUCTIONS TO VISIBILITY.

WYZ001-290300-
YELLOWSTONE NATIONAL PARK

CITY           SKY/WX    TMP DP  RH WIND       PRES   REMARKS
LK YELLOWSTONE   N/A     65  38  36 CALM      30.49S
W YELLOWSTONE  NOT AVBL

$$
WYZ002>013-054>058-071-098>099-290300-
NORTHERN WYOMING

CITY           SKY/WX    TMP DP  RH WIND       PRES   REMARKS
JACKSON        NOT AVBL
CODY           NOT AVBL
GREYBULL       CLOUDY    91  41  17 NW14      30.10R
WORLAND        CLOUDY    85  42  22 NE7       30.11R
SHERIDAN       MOCLDY    82  47  29 NE5       30.19R
BUFFALO        MOCLDY    79  48  33 N5        30.26S
GILLETTE       CLEAR     79  49  34 NE14      30.23R
HULETT         FAIR      73  52  46 MISG      30.26
NEWCASTLE      FAIR      77  46  33 MISG      30.23

$$
WYZ014>020-022>026-101>103-290300-
CENTRAL WYOMING

CITY           SKY/WX    TMP DP  RH WIND       PRES   REMARKS
BIG PINEY      CLOUDY    77  33  20 N15       30.30F
PINEDALE       CLOUDY    70  43  37 NW5       30.32R
DUBOIS         FAIR      72  36  26 S8        30.38S
LANDER         CLOUDY    83  37  19 NW6       30.20R
RIVERTON       CLOUDY    85  27  12 N9        30.20S
CASPER         CLEAR     83  35  18 E12       30.22R
DOUGLAS        PTCLDY    82  46  28 SE13      30.23R

$$
WYZ021-027>030-104>119-290300-
SOUTHERN WYOMING

CITY           SKY/WX    TMP DP  RH WIND       PRES   REMARKS
EVANSTON       LGT RAIN  59  54  83 W17       30.37F
FORT BRIDGER   MOCLDY    68  51  53 W16G24    30.38S
ROCK SPRINGS   CLOUDY    78  42  27 SW10      30.29R
DIXON          FAIR      75  46  35 SW15      30.32R
RAWLINS        MOCLDY    79  41  25 E14       30.30R
SARATOGA       FAIR      77  43  29 NE3       30.32F
LARAMIE        PTCLDY    72  50  45 SE7       30.36S
CHEYENNE       LGT RAIN  65  58  78 SE12G23   30.33R
TORRINGTON     CLEAR     80  56  43 SE9       30.18S
PINE BLUFFS    LGT RAIN  66  59  77 CALM      30.31R

$$


USA.gov is the U.S. government's official web portal to all federal, state and local government web resources and services.